GPS BIIF-5 (39533 NORAD) Tracking and Keplerian Element Data

This shows tracking and keplerian element data for the satellite.

Feedback or suggestion? Click here.




ElementValue
Catalog39533
NameGPS BIIF-5
Epoch Orbit3849
Epoch Day145.52813375
Epoch Year2019
RAAN254.7598
Inclination53.9141
Eccentricity0.0040888
Argument of Perigee193.255
Mean Anonmoly166.6561
Mean Motion2.00573368
Decay Rate-3.9E-07
L11 39533U 14008A 19145.52813375 -.00000039 00000-0 00000+0 0 9992
L22 39533 53.9141 254.7598 0040888 193.2550 166.6561 2.00573368 38490

Live tracking and technical data element details for GPS BIIF-5 (NORAD 39533). GPS BIIF-5 can be tracked NOW for your location showing map with azimuth and elevation plus other details from your city location.

Track the satellite on the map from your city or location and see movement details for azimuth, elevation, latitude, longitude, range, height, and movement on the map or in text.







IsCatalogInMostPopularTable: catalog: 39533, numindb: 245
Update: records affected: 1



GetName: 39533 GPS BIIF-5

Hit Count: updated at: Sun, 26 May 2019 08:09:21 GMT